User: anonymous   Login
Location: Unspecified
(0.0000°N, 0.0000°E)
Time: 15:57:10
(UTC+01:00)
Language:

Cosmos 773 Rocket - Orbit

View from above orbital plane
View from above orbital plane
View from above satellite
View from above satellite

Ground track
Ground track

The orbit data is extracted from the following two-line orbital elements,

1 08344U 75094B   17016.51211877  .00000060  00000-0  27804-4 0  9992
2 08344  74.0567  45.1117 0022337 340.9222  19.1093 14.39080503163868
Epoch (UTC): 16 January 2017 12:17:27
Eccentricity: 0.0022337
inclination: 74.0567°
perigee height: 745 km
apogee height: 777 km
right ascension of ascending node: 45.1117°
argument of perigee: 340.9222°
revolutions per day: 14.39080503
mean anomaly at epoch: 19.1093°
orbit number at epoch: 16386

The dashed part of the orbit path shows where the satellite is in the earth's shadow,  

DLR